Find Ekran

NORAD ID: 13554 Int'l Des: 1982-093 Owner: MSVYAZ Country: SU operational
HEOCIRCULARGSO

現在のビュー

3D地球を読み込み中...

Ekranについて

説明を読み込み中...

次回通過

Passes for default location (London). Set your location on the main map for personalized predictions.

高度履歴

Loading altitude history...

軌道要素

1 13554U 82093A 26149.95148338 -.00000250 00000-0 00000+0 0 9990
2 13554 7.1269 299.8263 0027280 10.2213 14.4173 1.00222412119827
Epoch: May 29, 2026 • Age: 18 hours

現在のステータス

高度 35771.0 km
速度 3.08 km/s
衛星直下点 -6.48°S, 94.17°E
打ち上げ日 Sep 16, 1982
運用期間 43.7 years
タイプ other

技術仕様

分類 Payload
質量 2000.00 kg
乾燥質量 1850.00 kg
総質量 2000.00 kg
長さ 5.50 m
直径 2.50 m
スパン 9.00 m
形状 Cyl + 2 Pan + Plate
製造者 NPOPM
バスタイプ Ekran
フェーズステータス In Orbit
所有者/国 MSVYAZ/SU

Most Searched